Regional Weather Roundup
Issued by NWS Boston, MA

Current Version | Previous Version | Text Only | Print | Product List | Glossary Off
Versions: 1 2 3 4 5 6 7 8 9 10 11 12 13 14 15 16 17 18 19 20 21 22 23 24 25 26 27 28
000 ASUS41 KBOX 170710 RWRBOX REGIONAL WEATHER ROUNDUP NATIONAL WEATHER SERVICE TAUNTON MA 200 AM EST SUN DEC 17 2017 NOTE: "FAIR" INDICATES FEW OR NO CLOUDS BELOW 12,000 FEET WITH NO SIGNIFICANT WEATHER AND/OR OBSTRUCTIONS TO VISIBILITY. MAZALL-170800- EASTERN MASSACHUSETTS CITY SKY/WX TMP DP RH WIND PRES REMARKS BOSTON CLEAR 23 7 50 W10 30.20R WCI 12 BEVERLY CLEAR 20 8 60 W9 30.18R WCI 9 LAWRENCE CLEAR 20 7 57 NW6 30.20R WCI 12 BEDFORD PTCLDY 11 8 88 CALM 30.19R BLUE HILL N/A 18 13 80 NW9 30.14R WCI 7 NORWOOD PTCLDY 12 9 87 CALM 30.20R MARSHFIELD CLEAR 19 12 73 W5 30.19R WCI 13 PLYMOUTH CLEAR 21 14 74 W6 30.19R WCI 13 TAUNTON CLEAR 10 7 87 CALM 30.20R NEW BEDFORD CLEAR 21 12 68 NW6 30.19R WCI 13 $$ MAZALL-170800- CAPE COD AND THE ISLANDS CITY SKY/WX TMP DP RH WIND PRES REMARKS FALMOUTH CLEAR 21 12 68 NW6 30.19R WCI 14 HYANNIS CLEAR 24 12 60 W7 30.17R WCI 16 CHATHAM CLEAR 28 13 53 NW6 30.17R WCI 22 PROVINCETOWN CLEAR 28 11 48 NW18G28 30.18R WCI 15 NANTUCKET CLEAR 27 13 55 NW15 30.18R WCI 15 MARTHAS VNYRD CLEAR 2 32 100 NW8 30.19R WCI -12 $$ MAZALL-170800- CENTRAL AND WESTERN MASSACHUSETTS CITY SKY/WX TMP DP RH WIND PRES REMARKS WORCESTER CLEAR 16 4 59 W6 30.13R WCI 7 FITCHBURG CLEAR 14 9 80 NE3 30.19R ORANGE NOT AVBL SPRINGFIELD CLEAR 11 8 86 CALM 30.20R WESTFIELD CLEAR 15 12 88 NW5 30.21R WCI 8 NORTH ADAMS CLOUDY 6 4 91 CALM 30.20R PITTSFIELD CLOUDY 14 9 80 S3 30.14R $$ RIZALL-170800- RHODE ISLAND CITY SKY/WX TMP DP RH WIND PRES REMARKS PROVIDENCE CLEAR 22 13 68 W8 30.22R WCI 12 NEWPORT CLEAR 25 14 63 NW12 30.19R WCI 14 BLOCK ISLAND CLEAR 28 12 51 NW15G23 30.22R WCI 16 SMITHFIELD PTCLDY 16 11 80 W3 30.18R WESTERLY CLEAR 26 13 57 VRB6 30.23R WCI 19 $$ CTZALL-170800- CONNECTICUT CITY SKY/WX TMP DP RH WIND PRES REMARKS BRADLEY INTL CLEAR 19 11 70 W7 30.22R WCI 10 HARTFORD CLEAR 26 12 55 N9 30.24R WCI 17 BRIDGEPORT PTCLDY 27 14 58 N5 30.24R WCI 22 DANBURY PTCLDY 18 14 84 CALM 30.22R GROTON CLEAR 25 11 55 NW9 30.23R WCI 15 NEW HAVEN PTCLDY 21 12 68 N3 30.23R CHESTER FAIR 23 10 58 CALM 30.21R MERIDEN CLEAR 14 10 84 CALM 30.23R WILLIMANTIC CLEAR 18 10 71 W5 30.22R WCI 11 OXFORD PTCLDY 15 12 88 CALM 30.19R $$ MEZ002-015-021-024-NHZ003-005-008-011-012-014-VTZ005-008-170800- NORTHERN NEW ENGLAND CITY SKY/WX TMP DP RH WIND PRES REMARKS PORTLAND ME PTCLDY 14 7 73 W7 30.16R WCI 4 BANGOR ME CLEAR 13 7 77 NW6 30.13R WCI 4 CONCORD NH PTCLDY 15 7 70 W7 30.18R WCI 5 MANCHESTER NH PTCLDY 17 7 64 NW8 30.17R WCI 7 NASHUA NH PTCLDY 11 9 92 NW5 30.20R WCI 3 PORTSMOUTH NH CLEAR 17 6 60 W8 30.16R WCI 7 JAFFREY NH CLEAR 5 2 87 S3 30.13R KEENE NH CLOUDY 3 0 87 CALM 30.20R BURLINGTON VT CLOUDY 8 4 83 E5 30.24R WCI 0 MT. WASHINGTON FOG -6 -6 100 NW33 N/A VSB 1/8 WCI -35 $$ NYZ052-076-170800- EASTERN NEW YORK CITY SKY/WX TMP DP RH WIND PRES REMARKS ALBANY PTCLDY 14 8 77 CALM 30.24R NEW YORK CITY CLOUDY 35 20 54 NW7 30.23R WCI 29 $$ ANZALL-170800- MARINE OBSERVATIONS STATION/POSITION TIME TEMP WIND PRES VSBY WAVE AIR SEA DIR/SP/G HT/PER (UTC) (F) (DEG/KT/KT) (MB) (MI) (FT/S) BOSTON BUOY 0650 27 47 310/ 19/ 23 1021.3R 3/ 4 BUZZARDS BAY 0600 29 320/ 15/ 18 1022.5R NANTUCKET SOUND 0650 29 40 320/ 19/ 23 1021.6R 2/ 4 MASS BAY-STELLWA 0604 26 46 310/ 17/ 21 1020.7R 2/ 3 ISLE OF SHOALS 0600 22 310/ 18/ 21 1020.6R S OF BLOCK IS 0643 52 N/A 6/ 8 $$ ......................KEY......................... SKY/WX - SKY CONDITION/PRESENT WEATHER TMP - TEMPERATURE IN FAHRENHEIT DWPT - DEWPOINT IN FAHRENHEIT RH - RELATIVE HUMIDITY IN PERCENT WIND - DIRECTION AND SPEED IN MPH PRES - MEAN SEA LEVEL PRESSURE IN INCHES OF HG WCI - WIND CHILL INDEX VSB - VISIBILITY IN MILES HX - HEAT INDEX TC - TEMPERATURE IN CELSIUS VRB - VARIABLE WIND DIRECTION N/A - NOT AVAILABLE

USA.gov is the U.S. government's official web portal to all federal, state and local government web resources and services.